Vertical_Velocity
1 1 1 1 0 -0 -0 -1 -0 -0 -0 -0 -1 -1 -1 -1 -1 -1 -1 -0 -0 -0 -0 -0 -0 -0 -0 -0 -0 0 -0 -0 -0 -0 -0 -0 -1 -1 -1 -1 -1 -1 -1 -2 -1 -1 -1 -1 -1 -1 -2 -2 -1 -2 -3 -2 -1 -2 -2 -3 -3 -3 -3 -2 -3 -2 -2 -3 -4
0 1 1 0 -0 -0 -1 -1 -1 -0 -0 -0 -0 -1 -1 -2 -2 -2 -1 -1 -0 0 0 -0 -0 -0 -0 -0 -0 0 0 -0 -0 -1 -1 -1 -1 -1 -1 -1 -2 -1 -1 -1 -1 -1 -1 -1 -1 -1 -1 -2 -1 -2 -2 -3 -1 -1 -2 -3 -3 -3 -2 -2 -3 -2 -2 -2 -3
0 0 0 -0 -1 -1 -1 -1 -1 -0 -0 -0 -0 -1 -1 -1 -1 -1 -1 -1 -0 0 0 -0 -0 -0 -0 -0 -0 -0 0 0 -0 -1 -1 -2 -2 -2 -2 -2 -2 -2 -2 -1 -1 -1 -1 -1 -1 -1 -1 -1 -1 -1 -2 -2 -1 -1 -1 -2 -3 -3 -3 -3 -3 -2 -2 -2 -2
0 0 -0 -1 -1 -1 -1 -0 -0 -0 -0 -0 -0 -0 -1 -1 -1 -1 -1 -1 -0 0 0 0 -0 -0 -0 -0 -0 -0 -1 -0 -0 -1 -1 -2 -2 -2 -2 -2 -2 -2 -2 -2 -1 -2 -2 -1 -1 -1 -1 -1 -1 -1 -1 -2 -1 -1 -1 -1 -2 -2 -3 -3 -3 -3 -2 -2 -2
0 -0 -0 -1 -1 -1 -1 -0 -0 -0 -0 -0 -0 -1 -1 -1 -1 -0 -0 -0 -0 -0 0 1 0 0 -0 0 -0 -1 -1 -1 -1 -1 -1 -2 -2 -2 -2 -2 -2 -2 -2 -2 -2 -2 -2 -2 -2 -2 -1 -1 -1 -1 -1 -1 -0 -1 -1 -2 -2 -3 -3 -3 -3 -3 -3 -2 -2
-0 -0 -1 -1 -1 -1 -1 -1 -0 -0 -0 -0 -0 -1 -1 -1 -0 -0 0 0 -0 0 0 1 1 1 0 0 -0 -1 -1 -2 -1 -1 -1 -1 -2 -2 -2 -2 -2 -2 -2 -2 -2 -2 -2 -2 -2 -2 -2 -1 -1 -2 -2 -1 -0 -1 -1 -2 -2 -3 -3 -5 -4 -3 -3 -3 -2
-0 -1 -1 -1 -1 -1 -1 -1 -0 -0 -0 -0 -0 -1 -1 -1 -0 0 1 1 0 0 0 1 1 0 0 -0 -1 -1 -2 -2 -2 -2 -1 -1 -2 -2 -2 -2 -3 -3 -3 -3 -3 -3 -3 -2 -1 -2 -2 -2 -1 -2 -2 -1 -1 -1 -1 -2 -2 -2 -2 -4 -4 -3 -2 -3 -2
-0 -1 -1 -1 -1 -1 -1 -1 -0 -0 -0 -0 -0 -1 -1 -0 0 1 1 1 1 1 0 0 0 -0 -0 -1 -1 -1 -1 -2 -2 -2 -2 -1 -2 -2 -2 -2 -2 -3 -3 -3 -3 -3 -3 -3 -2 -2 -2 -2 -1 -1 -1 -1 -1 -1 -1 -1 -2 -2 -2 -2 -4 -4 -3 -2 -2
-0 -1 -0 -0 -0 -0 -0 -0 -0 -0 -0 -0 -1 -1 -1 -0 0 1 1 1 1 1 0 -0 -0 -0 -1 -1 -1 -1 -1 -1 -1 -2 -2 -2 -2 -2 -2 -2 -2 -3 -4 -4 -3 -3 -3 -2 -2 -2 -2 -1 -1 -2 -2 -1 -1 -2 -2 -1 -2 -2 -3 -2 -3 -4 -4 -2 -2
-0 -0 -0 -0 -0 -0 -0 -0 -0 0 0 -0 -1 -1 -1 -0 0 1 1 1 1 0 -0 -1 -1 -1 -1 -1 -1 -1 -1 -1 -1 -1 -2 -2 -2 -2 -2 -2 -2 -3 -4 -4 -4 -3 -2 -2 -2 -2 -2 -2 -2 -2 -2 -2 -1 -2 -2 -2 -1 -2 -2 -3 -2 -3 -4 -4 -3
-1 -0 -0 -0 -0 -0 -0 0 -0 0 0 0 -0 -1 -1 -0 0 0 1 1 1 0 -0 -1 -0 -1 -1 -1 -1 -1 -1 -1 -1 -1 -2 -2 -2 -2 -2 -2 -2 -2 -3 -4 -4 -3 -2 -2 -2 -2 -2 -2 -2 -2 -2 -2 -1 -1 -2 -2 -1 -1 -2 -3 -2 -2 -3 -3 -3
-0 -0 -0 -0 -0 0 0 0 -0 0 1 1 0 0 0 -0 0 0 0 1 0 -0 -1 -1 -0 -0 -1 -1 -1 -1 -1 -1 -1 -2 -2 -2 -2 -2 -2 -3 -3 -3 -3 -3 -3 -3 -2 -2 -2 -1 -1 -1 -1 -2 -2 -2 -2 -1 -1 -2 -1 -1 -1 -2 -3 -3 -3 -3 -2
-0 -0 -0 -0 -0 0 0 0 0 0 1 1 1 1 1 0 0 0 0 0 -0 -1 -1 -1 -1 -0 -0 -0 -0 -1 -1 -1 -2 -2 -2 -2 -2 -2 -2 -3 -3 -3 -3 -4 -4 -3 -3 -3 -2 -1 -1 -1 -1 -1 -1 -1 -1 -1 -1 -2 -2 -2 -2 -2 -3 -3 -4 -4 -4
-0 -0 -0 -0 -0 0 0 0 0 0 1 1 1 1 1 0 -0 0 0 0 -0 -1 -1 -1 -1 -0 0 0 -0 -0 -1 -1 -2 -2 -2 -2 -2 -2 -2 -3 -3 -3 -3 -4 -4 -3 -3 -3 -2 -2 -1 -1 -1 -1 -1 -1 -1 -1 -1 -2 -2 -3 -3 -3 -4 -4 -4 -4 -5
-0 -0 -0 -0 0 0 1 1 1 1 1 1 0 1 1 0 -0 0 0 0 -0 -1 -1 -1 -1 -1 -1 -0 -0 -1 -1 -1 -1 -2 -2 -2 -3 -3 -3 -3 -3 -3 -3 -3 -3 -3 -3 -2 -3 -2 -2 -1 -1 -1 -1 -1 -1 -1 -2 -2 -3 -4 -4 -5 -5 -5 -5 -4 -4
-0 -0 -0 0 0 1 1 1 1 1 1 0 0 0 0 0 -0 0 0 0 -0 -1 -1 -0 -0 -1 -1 -1 -1 -1 -2 -2 -2 -2 -2 -2 -3 -3 -3 -3 -3 -3 -3 -3 -3 -3 -2 -2 -2 -2 -1 -1 -1 -1 -1 -1 -1 -2 -2 -3 -4 -4 -5 -5 -5 -5 -5 -6 -4
0 0 0 1 1 1 1 1 1 1 1 0 0 0 0 -0 -0 0 0 -0 -0 -0 -0 -1 -0 -1 -1 -3 -2 -2 -2 -2 -3 -3 -3 -3 -3 -3 -3 -3 -3 -3 -3 -2 -2 -2 -2 -2 -2 -2 -1 -1 -1 -1 -1 -1 -2 -2 -2 -3 -4 -4 -4 -5 -5 -5 -5 -6 -6
0 0 1 1 1 1 1 1 1 1 1 0 0 0 0 -0 -0 -0 -0 -0 0 0 -0 -1 -1 -1 -1 -2 -3 -3 -2 -2 -3 -3 -3 -3 -3 -3 -2 -3 -2 -2 -2 -2 -2 -2 -1 -1 -1 -1 -1 -1 -1 -1 -1 -1 -2 -3 -3 -3 -4 -4 -4 -4 -5 -4 -4 -4 -5
1 1 1 1 1 1 1 1 1 1 1 0 0 0 0 -0 -0 -0 -1 -1 -0 0 0 -0 -1 -2 -2 -2 -3 -3 -3 -2 -3 -3 -4 -4 -3 -3 -3 -2 -2 -2 -2 -3 -2 -2 -1 -1 -1 -1 -1 -2 -2 -3 -2 -2 -2 -2 -2 -2 -3 -3 -4 -4 -4 -5 -5 -4 -4
1 1 1 1 1 1 1 1 1 1 0 0 0 0 -0 -0 -1 -1 -1 -1 -1 0 0 -0 -1 -2 -3 -3 -3 -3 -4 -4 -3 -3 -4 -3 -3 -3 -3 -2 -2 -2 -2 -2 -2 -2 -2 -2 -2 -2 -2 -2 -2 -2 -3 -3 -2 -2 -2 -2 -2 -2 -3 -3 -4 -4 -5 -6 -6
1 1 1 1 1 1 1 1 1 0 0 0 0 0 -0 -1 -1 -1 -0 -0 -0 -0 -0 -1 -1 -2 -2 -3 -3 -3 -4 -4 -3 -3 -3 -3 -2 -2 -2 -2 -2 -2 -2 -2 -2 -2 -2 -2 -2 -2 -3 -3 -3 -2 -1 -1 -2 -2 -2 -2 -2 -2 -2 -3 -4 -4 -5 -5 -5
1 1 1 1 1 1 1 1 0 0 0 0 0 -0 -0 -1 -1 -0 -0 0 0 -0 -1 -1 -2 -2 -2 -2 -2 -2 -3 -3 -3 -3 -2 -2 -2 -2 -2 -2 -2 -2 -2 -2 -2 -2 -2 -2 -2 -2 -2 -2 -3 -3 -2 -1 -1 -1 -1 -2 -2 -2 -2 -3 -4 -5 -6 -6 -5
1 1 1 1 1 1 1 1 0 0 0 0 -0 -0 -1 -1 -0 -0 0 -0 -0 -1 -1 -2 -2 -2 -2 -2 -2 -2 -2 -2 -2 -2 -2 -2 -2 -2 -2 -1 -2 -2 -2 -2 -2 -2 -3 -3 -4 -3 -2 -1 -1 -2 -2 -2 -3 -3 -2 -2 -2 -3 -3 -3 -3 -4 -5 -8 -8
1 1 0 1 1 1 1 0 0 0 0 0 -0 -1 -0 -0 -0 -0 -0 -1 -1 -1 -2 -2 -2 -2 -2 -2 -2 -2 -2 -2 -2 -2 -1 -1 -1 -1 -2 -2 -2 -2 -2 -2 -3 -3 -3 -3 -4 -4 -4 -3 -2 -2 -2 -1 -2 -3 -4 -3 -3 -3 -4 -5 -4 -4 -3 -4 -6
1 0 0 1 1 1 1 1 1 0 0 -0 -1 -0 -0 -0 -0 -0 -1 -1 -2 -2 -2 -2 -3 -3 -2 -2 -3 -3 -2 -2 -2 -1 -1 -1 -0 -0 -1 -1 -2 -2 -2 -2 -2 -3 -4 -4 -4 -5 -5 -5 -4 -3 -3 -4 -2 -2 -3 -4 -4 -4 -4 -6 -7 -7 -6 -4 -4
0 0 1 1 1 1 1 1 0 0 -0 -1 -1 -1 -0 -0 -0 -0 -1 -1 -2 -2 -2 -2 -2 -2 -2 -2 -3 -3 -3 -3 -2 -1 -0 0 0 0 -0 -1 -1 -2 -2 -2 -2 -2 -3 -4 -5 -6 -6 -5 -5 -4 -3 -5 -5 -4 -4 -5 -6 -6 -5 -5 -5 -6 -7 -7 -5
0 1 1 1 1 1 1 0 0 -0 -0 -1 -0 -0 -0 -0 -0 -0 -1 -1 -2 -2 -2 -2 -2 -2 -2 -2 -2 -2 -3 -3 -2 -1 -0 1 1 1 -0 -1 -2 -2 -2 -2 -3 -2 -3 -4 -4 -5 -6 -6 -6 -4 -3 -3 -4 -5 -5 -5 -6 -7 -7 -6 -5 -4 -4 -6 -6
1 1 1 1 1 1 0 0 0 -0 -0 -1 -0 -0 -0 -0 -0 -1 -1 -1 -1 -2 -2 -2 -2 -2 -2 -2 -2 -2 -2 -2 -1 -0 0 1 1 1 0 -1 -2 -3 -3 -3 -3 -3 -3 -4 -4 -4 -5 -5 -5 -5 -4 -3 -4 -5 -6 -6 -6 -6 -6 -7 -6 -5 -4 -3 -4
1 1 1 1 1 0 0 0 -0 -0 -0 -0 -0 -0 -0 -0 -0 -0 -0 -1 -1 -1 -2 -2 -2 -2 -2 -2 -1 -1 -1 -1 -0 0 1 1 1 -0 -1 -1 -2 -3 -4 -3 -3 -3 -3 -4 -4 -4 -4 -5 -5 -5 -4 -4 -4 -5 -6 -6 -6 -6 -6 -6 -6 -6 -6 -5 -4
1 1 1 1 1 0 -0 -0 -0 -0 -0 -0 -0 -0 -0 -0 -0 -0 -0 -0 -1 -1 -1 -1 -1 -1 -1 -1 -1 -0 0 0 0 0 0 1 1 0 -1 -2 -3 -3 -3 -3 -3 -3 -3 -3 -4 -4 -4 -4 -4 -4 -4 -5 -5 -5 -5 -5 -6 -6 -6 -6 -5 -5 -5 -6 -5
1 1 1 1 0 -0 -0 -1 -1 -0 -0 -0 -0 -0 -0 -0 -0 -0 -0 0 -0 -1 -1 -0 -0 -1 -1 -0 0 1 0 0 0 0 0 0 -0 -0 -1 -1 -3 -4 -4 -3 -3 -3 -4 -3 -4 -4 -4 -4 -4 -4 -5 -5 -5 -5 -5 -5 -5 -5 -6 -6 -5 -5 -4 -4 -5
1 1 1 0 -0 -0 -1 -1 -1 -0 -0 0 0 0 0 -0 -0 -0 -0 0 0 -0 -1 -1 -0 -0 -0 0 1 1 1 0 -0 -0 -0 0 -0 -1 -1 -2 -2 -3 -4 -4 -3 -3 -4 -4 -4 -4 -4 -4 -4 -4 -4 -4 -4 -4 -4 -5 -4 -4 -4 -5 -5 -5 -4 -4 -4
1 1 0 0 -0 -1 -1 -1 -0 -0 0 0 0 0 0 -0 -1 -1 -0 -0 0 0 0 -0 -0 0 1 1 1 1 1 1 0 -0 -1 -0 -0 -0 -1 -2 -3 -3 -4 -4 -4 -4 -3 -4 -4 -4 -4 -4 -4 -4 -4 -4 -4 -3 -3 -4 -4 -4 -4 -3 -4 -4 -4 -5 -4
1 1 0 -0 -0 -1 -1 -0 0 0 1 0 0 0 0 0 -0 -1 -1 -0 -0 -0 0 0 0 1 1 2 2 1 0 0 0 -0 -1 -1 -1 -0 -1 -2 -4 -4 -3 -3 -4 -4 -4 -4 -4 -5 -5 -4 -4 -4 -4 -3 -4 -4 -4 -4 -4 -4 -4 -3 -2 -2 -2 -4 -5
1 0 -0 -0 -0 -0 -0 0 0 1 1 1 0 -0 -0 -0 0 0 0 0 0 0 -0 -0 0 1 1 1 1 0 -0 -1 -1 -1 -1 -1 -1 -1 -1 -1 -3 -4 -4 -3 -4 -4 -4 -5 -5 -5 -5 -5 -4 -3 -2 -2 -2 -3 -3 -4 -4 -3 -3 -4 -3 -2 -1 -2 -3
0 -0 -0 -1 -1 -0 0 0 1 1 1 1 0 -0 -1 -1 -1 -0 0 1 1 1 0 -0 0 0 0 -0 -1 -1 -1 -1 -2 -2 -2 -2 -1 -1 -2 -2 -2 -3 -4 -4 -4 -4 -4 -4 -5 -5 -5 -6 -5 -3 -2 -2 -2 -2 -2 -3 -3 -3 -2 -3 -3 -2 -1 -1 -2
-1 -0 -0 -1 -0 -0 0 1 1 1 0 0 0 -0 -0 -1 -1 -1 -0 1 1 1 1 1 0 0 0 0 0 -1 -2 -2 -2 -2 -3 -4 -2 -2 -2 -3 -2 -2 -2 -3 -4 -4 -4 -5 -5 -5 -5 -5 -6 -5 -4 -3 -3 -3 -3 -3 -4 -3 -1 0 -3 -3 -1 0 -1
-1 -1 -0 -0 -0 0 1 1 1 1 0 -0 -0 -0 -0 -0 -1 -1 -1 1 1 1 1 1 1 0 0 1 1 -0 -1 -3 -3 -3 -4 -4 -4 -3 -2 -2 -3 -3 -2 -2 -3 -3 -4 -5 -6 -6 -5 -4 -5 -5 -5 -4 -4 -4 -3 -3 -4 -4 -1 3 -0 -3 -3 1 0
-1 -0 -0 0 1 1 1 1 1 1 0 -0 -0 -1 -1 -1 -1 -1 -0 0 1 1 1 1 1 0 0 1 1 -0 -1 -3 -3 -3 -3 -4 -4 -4 -3 -2 -3 -3 -3 -3 -4 -4 -4 -4 -6 -6 -6 -5 -5 -5 -5 -4 -5 -5 -3 -2 -3 -4 -4 1 3 -0 -4 -3 1
-0 0 1 1 1 1 1 1 0 0 0 0 -0 -0 -1 -0 -0 -0 -0 0 0 1 1 1 1 0 -0 0 0 0 -1 -2 -3 -3 -3 -4 -4 -4 -4 -3 -4 -4 -3 -2 -4 -5 -5 -3 -4 -6 -7 -6 -6 -6 -6 -4 -6 -6 -5 -2 -1 -2 -4 -3 1 2 -0 -4 -2
0 1 1 1 1 1 1 1 -0 -0 -1 -0 -0 -0 -0 -0 -0 -0 -0 0 0 0 0 0 0 -0 -1 -1 -1 -0 -1 -2 -3 -3 -3 -3 -4 -5 -4 -3 -4 -5 -5 -2 -2 -4 -6 -5 -3 -4 -6 -7 -7 -8 -8 -4 -5 -7 -7 -4 -2 -1 -2 -3 -1 1 2 -0 -2
Height
5737 5736 5736 5735 5734 5733 5732 5731 5730 5729 5728 5728 5727 5725 5724 5723 5722 5721 5720 5719 5718 5717 5716 5714 5713 5712 5710 5709 5708 5706 5705 5703 5702 5700 5698 5696 5694 5693 5691 5689 5687 5685 5683 5681 5678 5676 5674 5672 5669 5667 5664 5661 5659 5656 5653 5651 5648 5645 5642 5639 5636 5633 5631 5628 5625 5622 5619 5616 5613
5735 5734 5733 5732 5731 5730 5729 5729 5728 5727 5726 5725 5724 5723 5721 5720 5719 5718 5717 5716 5715 5714 5713 5711 5710 5709 5707 5706 5704 5703 5701 5700 5698 5696 5694 5693 5691 5689 5687 5685 5683 5681 5679 5677 5674 5672 5670 5667 5665 5662 5660 5657 5654 5652 5648 5646 5643 5640 5637 5634 5631 5628 5625 5623 5620 5617 5614 5611 5608
5732 5731 5730 5730 5729 5728 5727 5726 5725 5725 5723 5723 5721 5720 5719 5718 5717 5715 5714 5713 5712 5711 5710 5708 5707 5706 5704 5703 5701 5700 5698 5696 5695 5693 5691 5689 5687 5685 5683 5681 5679 5677 5675 5673 5670 5668 5665 5663 5660 5658 5655 5652 5650 5647 5644 5641 5638 5635 5632 5629 5626 5623 5620 5618 5615 5612 5609 5606 5603
5730 5729 5728 5727 5726 5725 5725 5724 5723 5722 5721 5720 5719 5718 5716 5715 5714 5713 5712 5711 5710 5708 5707 5706 5704 5703 5701 5700 5698 5697 5695 5693 5691 5689 5688 5686 5683 5682 5679 5677 5675 5673 5671 5668 5666 5663 5661 5658 5656 5653 5650 5648 5645 5642 5639 5636 5633 5630 5627 5624 5621 5618 5615 5612 5609 5607 5604 5601 5598
5728 5727 5726 5725 5724 5723 5722 5721 5721 5720 5718 5718 5716 5715 5714 5713 5711 5710 5709 5708 5707 5706 5704 5703 5702 5700 5698 5697 5695 5693 5692 5690 5688 5686 5684 5682 5680 5678 5676 5673 5671 5669 5667 5664 5662 5659 5657 5654 5651 5648 5646 5643 5640 5637 5634 5632 5628 5626 5623 5619 5616 5613 5610 5607 5604 5602 5599 5596 5593
5725 5724 5723 5722 5722 5721 5720 5719 5718 5717 5716 5715 5714 5713 5711 5710 5709 5708 5707 5706 5704 5703 5702 5700 5699 5697 5695 5694 5692 5690 5688 5687 5685 5683 5681 5678 5676 5674 5672 5669 5667 5665 5662 5660 5657 5655 5652 5649 5647 5644 5641 5638 5635 5633 5630 5627 5624 5621 5618 5615 5612 5608 5605 5602 5599 5597 5594 5591 5587
5723 5722 5721 5720 5719 5718 5718 5717 5716 5714 5713 5712 5711 5710 5709 5708 5707 5705 5704 5703 5702 5700 5699 5698 5696 5694 5693 5691 5689 5687 5685 5683 5681 5679 5677 5675 5672 5670 5668 5665 5663 5660 5658 5655 5653 5650 5648 5645 5642 5639 5637 5634 5631 5628 5625 5622 5619 5617 5613 5610 5607 5604 5601 5598 5594 5591 5588 5585 5582
5720 5720 5719 5718 5717 5716 5715 5714 5713 5712 5711 5710 5709 5708 5706 5705 5704 5703 5702 5701 5699 5698 5696 5694 5693 5691 5689 5688 5686 5684 5682 5680 5678 5675 5673 5671 5668 5666 5664 5661 5659 5656 5653 5651 5648 5646 5643 5640 5638 5635 5632 5629 5627 5623 5621 5618 5615 5612 5609 5606 5603 5599 5596 5593 5589 5586 5583 5580 5577
5718 5717 5716 5715 5714 5713 5713 5712 5711 5710 5708 5708 5706 5705 5704 5703 5702 5700 5699 5698 5696 5695 5693 5692 5690 5688 5686 5684 5683 5681 5678 5676 5674 5672 5669 5667 5665 5662 5660 5657 5655 5652 5649 5647 5644 5642 5639 5636 5633 5630 5628 5625 5622 5619 5616 5613 5610 5607 5604 5601 5598 5594 5591 5588 5584 5581 5577 5574 5571
5716 5715 5714 5713 5712 5711 5710 5709 5708 5707 5706 5705 5703 5702 5701 5700 5699 5698 5696 5695 5693 5692 5690 5688 5687 5685 5683 5681 5679 5677 5675 5673 5670 5668 5665 5663 5661 5658 5656 5653 5651 5648 5645 5642 5640 5637 5634 5632 5629 5626 5623 5620 5618 5614 5612 5609 5606 5603 5599 5596 5593 5590 5586 5582 5579 5576 5572 5568 5565
5713 5713 5712 5711 5710 5709 5708 5707 5706 5705 5703 5702 5701 5700 5698 5697 5696 5695 5693 5692 5690 5689 5687 5685 5683 5682 5680 5678 5676 5673 5671 5669 5666 5664 5662 5659 5657 5654 5652 5649 5646 5643 5641 5638 5635 5633 5630 5627 5625 5622 5619 5616 5613 5610 5607 5604 5601 5598 5595 5591 5588 5585 5581 5577 5573 5570 5566 5563 5559
5711 5710 5709 5708 5707 5706 5705 5704 5703 5702 5701 5700 5698 5697 5696 5694 5693 5692 5690 5689 5687 5686 5684 5682 5680 5678 5676 5674 5672 5670 5667 5665 5662 5660 5658 5655 5653 5650 5647 5645 5642 5639 5636 5633 5631 5628 5626 5623 5620 5618 5615 5612 5608 5606 5603 5599 5596 5593 5590 5586 5583 5579 5576 5572 5568 5564 5561 5557 5553
5709 5708 5707 5706 5705 5704 5703 5702 5701 5700 5698 5697 5696 5694 5693 5692 5690 5689 5687 5686 5684 5682 5680 5678 5677 5675 5673 5670 5668 5666 5663 5661 5658 5656 5653 5651 5648 5646 5643 5640 5638 5635 5632 5629 5626 5624 5621 5618 5616 5613 5610 5608 5604 5601 5598 5595 5591 5588 5585 5581 5578 5574 5570 5567 5563 5558 5555 5551 5547
5706 5705 5704 5703 5702 5701 5700 5699 5698 5697 5696 5694 5693 5692 5690 5689 5687 5686 5684 5683 5681 5679 5677 5675 5673 5671 5669 5667 5664 5662 5659 5657 5654 5652 5649 5647 5644 5642 5639 5636 5633 5630 5628 5625 5622 5619 5617 5614 5611 5609 5606 5603 5600 5597 5593 5590 5586 5583 5579 5576 5572 5568 5564 5561 5557 5553 5548 5544 5540
5704 5703 5702 5701 5700 5699 5698 5697 5696 5694 5693 5692 5690 5689 5687 5686 5684 5683 5681 5679 5678 5676 5673 5672 5669 5667 5665 5663 5660 5658 5655 5653 5651 5648 5645 5643 5640 5637 5634 5632 5629 5626 5623 5620 5618 5615 5612 5610 5607 5604 5601 5598 5595 5592 5588 5585 5581 5578 5574 5570 5566 5562 5558 5554 5550 5546 5542 5538 5534
5702 5700 5699 5698 5697 5696 5695 5694 5693 5692 5690 5689 5687 5686 5684 5683 5681 5679 5678 5676 5674 5672 5670 5668 5666 5663 5661 5659 5657 5654 5651 5649 5646 5644 5641 5638 5636 5633 5630 5627 5624 5622 5619 5616 5613 5611 5608 5605 5603 5600 5597 5593 5590 5587 5583 5580 5576 5572 5568 5564 5560 5556 5552 5548 5544 5540 5535 5531 5527
5699 5698 5697 5696 5695 5694 5693 5692 5690 5689 5687 5686 5684 5683 5681 5680 5678 5676 5674 5673 5671 5668 5666 5664 5662 5660 5657 5654 5652 5650 5648 5645 5642 5639 5637 5634 5631 5628 5626 5623 5620 5617 5615 5612 5609 5607 5604 5601 5598 5595 5592 5589 5585 5582 5578 5575 5571 5567 5563 5559 5554 5550 5546 5542 5538 5533 5529 5525 5520
5697 5696 5694 5693 5693 5691 5690 5689 5687 5686 5684 5683 5681 5680 5678 5677 5675 5673 5671 5669 5667 5665 5663 5660 5658 5656 5653 5651 5648 5646 5643 5641 5638 5635 5633 5630 5627 5624 5621 5618 5616 5613 5610 5608 5605 5603 5600 5597 5593 5590 5587 5584 5580 5577 5573 5570 5566 5562 5558 5553 5549 5545 5540 5536 5532 5527 5523 5518 5513
5694 5693 5692 5691 5690 5689 5687 5686 5684 5683 5681 5680 5678 5677 5675 5673 5671 5669 5668 5666 5663 5662 5659 5657 5654 5652 5649 5647 5644 5642 5639 5637 5634 5631 5628 5625 5623 5620 5617 5614 5612 5609 5606 5603 5601 5598 5595 5592 5589 5585 5582 5579 5575 5572 5568 5564 5561 5557 5552 5548 5543 5539 5534 5530 5525 5520 5516 5511 5506
5692 5691 5689 5688 5687 5686 5684 5683 5682 5680 5678 5677 5675 5673 5672 5670 5668 5666 5664 5662 5660 5658 5655 5653 5650 5648 5645 5643 5640 5638 5635 5632 5629 5627 5624 5621 5618 5615 5613 5610 5607 5604 5602 5599 5596 5593 5590 5587 5584 5580 5577 5574 5570 5567 5563 5559 5555 5551 5547 5543 5538 5533 5529 5524 5519 5514 5509 5503 5498
5689 5688 5687 5686 5684 5683 5682 5680 5678 5677 5675 5674 5672 5670 5668 5666 5664 5663 5660 5658 5656 5654 5652 5649 5647 5644 5641 5639 5636 5633 5631 5628 5625 5622 5619 5617 5614 5611 5608 5606 5603 5600 5598 5595 5592 5588 5585 5582 5579 5576 5572 5569 5565 5562 5558 5554 5550 5546 5542 5537 5533 5528 5523 5517 5512 5507 5502 5497 5491
5687 5685 5684 5683 5681 5680 5678 5677 5675 5674 5672 5670 5669 5667 5665 5663 5661 5659 5657 5655 5653 5650 5648 5645 5643 5640 5638 5635 5632 5629 5627 5624 5621 5618 5615 5613 5610 5607 5604 5602 5599 5596 5593 5590 5587 5584 5581 5577 5574 5571 5567 5564 5560 5556 5552 5548 5544 5540 5536 5531 5526 5521 5516 5511 5506 5500 5495 5489 5483
5684 5683 5681 5680 5678 5677 5675 5673 5672 5670 5669 5667 5665 5663 5661 5659 5658 5655 5653 5651 5649 5646 5644 5641 5639 5636 5633 5631 5628 5625 5623 5620 5617 5614 5611 5608 5606 5603 5600 5597 5594 5592 5588 5585 5582 5579 5576 5572 5569 5565 5562 5558 5555 5551 5547 5542 5538 5534 5529 5525 5520 5515 5510 5504 5499 5494 5488 5482 5476
5681 5679 5678 5677 5675 5674 5672 5671 5669 5667 5666 5664 5662 5660 5658 5656 5654 5652 5650 5647 5645 5643 5640 5637 5635 5632 5629 5627 5624 5621 5618 5616 5613 5610 5607 5604 5602 5599 5596 5593 5590 5587 5584 5580 5577 5573 5570 5567 5563 5560 5556 5553 5549 5545 5541 5536 5532 5527 5523 5518 5513 5508 5503 5498 5493 5487 5481 5475 5469
5678 5677 5675 5674 5672 5671 5669 5668 5666 5664 5662 5660 5658 5656 5654 5653 5650 5648 5646 5643 5641 5638 5636 5633 5631 5628 5625 5623 5619 5617 5614 5612 5609 5606 5603 5601 5598 5595 5592 5588 5585 5582 5579 5576 5572 5568 5565 5561 5557 5554 5550 5547 5543 5539 5535 5530 5526 5521 5516 5511 5507 5502 5497 5492 5486 5480 5474 5468 5462
5675 5673 5672 5671 5669 5668 5666 5664 5663 5661 5659 5657 5655 5653 5651 5649 5647 5644 5642 5640 5637 5634 5632 5629 5627 5624 5621 5618 5615 5613 5610 5607 5605 5602 5600 5597 5594 5591 5587 5584 5581 5578 5574 5571 5567 5564 5560 5556 5552 5548 5544 5540 5537 5533 5529 5524 5519 5514 5510 5505 5500 5495 5490 5485 5480 5473 5467 5461 5455
5672 5670 5669 5668 5666 5664 5663 5661 5659 5657 5655 5653 5651 5649 5648 5645 5643 5641 5638 5636 5633 5631 5628 5625 5623 5620 5617 5614 5611 5608 5606 5603 5601 5598 5595 5593 5590 5587 5583 5579 5576 5573 5569 5566 5562 5558 5555 5551 5547 5543 5538 5534 5531 5527 5523 5518 5513 5508 5503 5498 5493 5488 5483 5478 5473 5467 5461 5454 5448
5669 5667 5666 5664 5663 5661 5659 5658 5656 5654 5652 5650 5648 5646 5644 5642 5639 5637 5635 5632 5629 5627 5624 5621 5618 5616 5613 5610 5607 5605 5602 5599 5597 5594 5591 5588 5585 5582 5578 5575 5571 5568 5564 5561 5557 5553 5550 5546 5542 5537 5533 5528 5524 5521 5516 5512 5507 5502 5497 5492 5487 5482 5476 5471 5465 5459 5454 5448 5442
5666 5664 5663 5661 5659 5658 5656 5654 5652 5650 5648 5646 5644 5642 5640 5638 5636 5633 5631 5628 5625 5623 5620 5617 5614 5612 5609 5606 5603 5601 5598 5595 5593 5590 5587 5584 5581 5578 5574 5570 5567 5563 5559 5556 5552 5548 5544 5540 5536 5532 5528 5523 5519 5514 5510 5505 5501 5496 5491 5485 5480 5475 5469 5464 5458 5452 5446 5441 5435
5662 5661 5659 5658 5656 5654 5653 5651 5649 5647 5645 5643 5641 5639 5637 5634 5632 5629 5627 5624 5622 5619 5616 5613 5610 5608 5605 5602 5599 5597 5594 5591 5588 5586 5583 5580 5576 5573 5569 5566 5562 5558 5554 5551 5547 5543 5539 5535 5531 5527 5522 5518 5513 5508 5504 5499 5494 5489 5484 5479 5474 5468 5463 5457 5451 5445 5439 5434 5428
5659 5658 5656 5654 5653 5651 5649 5647 5645 5643 5641 5639 5637 5635 5633 5630 5628 5626 5623 5620 5618 5615 5612 5609 5606 5603 5601 5598 5596 5593 5590 5587 5584 5581 5578 5575 5572 5568 5565 5561 5557 5553 5549 5546 5542 5538 5534 5530 5526 5521 5517 5512 5508 5503 5498 5493 5488 5483 5478 5473 5467 5462 5456 5450 5443 5438 5432 5427 5421
5656 5654 5653 5651 5649 5647 5645 5643 5642 5640 5638 5636 5633 5631 5629 5627 5624 5622 5619 5616 5613 5611 5608 5605 5603 5600 5597 5594 5592 5589 5586 5583 5580 5577 5574 5571 5568 5564 5560 5556 5552 5548 5545 5541 5537 5533 5529 5524 5520 5516 5511 5507 5502 5497 5493 5488 5483 5478 5472 5467 5461 5455 5449 5443 5437 5431 5425 5420 5414
5653 5651 5649 5648 5646 5644 5642 5640 5638 5636 5634 5632 5630 5628 5625 5623 5620 5618 5615 5612 5609 5607 5604 5601 5598 5596 5593 5591 5588 5585 5582 5579 5576 5573 5569 5566 5563 5559 5555 5551 5547 5543 5540 5536 5532 5528 5523 5519 5514 5510 5506 5501 5496 5492 5487 5482 5477 5471 5466 5460 5454 5448 5443 5436 5430 5425 5419 5413 5408
5649 5648 5646 5644 5642 5640 5638 5637 5635 5633 5631 5628 5626 5624 5621 5619 5616 5613 5611 5608 5605 5603 5600 5597 5595 5592 5589 5587 5584 5581 5578 5575 5572 5568 5565 5562 5558 5555 5551 5547 5543 5538 5534 5531 5526 5522 5518 5513 5509 5504 5500 5495 5491 5486 5481 5476 5471 5465 5459 5454 5448 5442 5436 5430 5424 5418 5413 5408 5403
5646 5644 5643 5641 5639 5637 5635 5633 5631 5629 5627 5625 5623 5620 5617 5615 5612 5610 5607 5604 5601 5598 5596 5593 5591 5588 5585 5583 5580 5577 5574 5571 5567 5564 5561 5558 5554 5550 5546 5542 5538 5533 5529 5525 5521 5516 5512 5507 5503 5498 5494 5489 5485 5480 5476 5471 5465 5460 5454 5448 5442 5436 5430 5424 5418 5412 5407 5402 5397
5643 5641 5639 5637 5636 5634 5632 5630 5628 5626 5623 5621 5619 5616 5613 5611 5608 5606 5603 5601 5598 5595 5592 5590 5587 5584 5582 5579 5576 5572 5569 5566 5563 5560 5556 5553 5550 5546 5542 5538 5533 5529 5524 5520 5515 5511 5506 5501 5497 5492 5488 5483 5478 5474 5469 5464 5459 5454 5448 5442 5436 5429 5424 5418 5413 5407 5401 5396 5392
5639 5638 5636 5634 5632 5630 5628 5626 5624 5622 5620 5617 5615 5612 5610 5607 5604 5602 5599 5597 5594 5591 5589 5586 5583 5581 5578 5575 5572 5568 5565 5562 5558 5555 5552 5548 5545 5541 5537 5533 5528 5524 5519 5515 5510 5505 5500 5495 5491 5486 5481 5477 5472 5468 5463 5458 5453 5447 5441 5436 5430 5423 5418 5412 5407 5402 5397 5391 5387
5636 5634 5633 5631 5629 5627 5625 5623 5621 5618 5616 5613 5611 5608 5606 5603 5600 5598 5595 5593 5591 5588 5585 5583 5580 5577 5574 5571 5568 5564 5561 5557 5554 5550 5547 5543 5539 5536 5532 5528 5523 5518 5514 5509 5504 5499 5494 5489 5484 5479 5475 5470 5466 5461 5456 5451 5446 5440 5434 5429 5423 5418 5412 5406 5402 5397 5392 5387 5382
5633 5631 5629 5627 5625 5623 5621 5619 5617 5615 5612 5610 5607 5604 5602 5599 5597 5594 5592 5589 5587 5585 5582 5579 5576 5573 5570 5568 5564 5561 5557 5553 5549 5546 5542 5538 5534 5530 5527 5523 5518 5513 5508 5504 5499 5493 5488 5483 5478 5473 5468 5463 5458 5454 5449 5444 5439 5433 5427 5422 5417 5412 5406 5401 5396 5392 5388 5383 5378
5630 5628 5626 5624 5622 5620 5618 5616 5613 5611 5608 5606 5603 5600 5598 5595 5593 5590 5588 5585 5583 5581 5578 5576 5573 5569 5567 5563 5560 5557 5553 5548 5545 5541 5537 5533 5529 5525 5521 5517 5512 5508 5503 5498 5493 5488 5483 5477 5472 5467 5462 5457 5452 5446 5442 5437 5432 5426 5420 5415 5410 5406 5401 5396 5391 5386 5383 5379 5374
5626 5624 5623 5621 5618 5617 5614 5612 5609 5607 5604 5602 5599 5597 5594 5592 5589 5587 5584 5582 5579 5577 5575 5572 5568 5565 5562 5559 5556 5553 5549 5545 5540 5536 5533 5528 5524 5520 5515 5512 5507 5502 5497 5492 5488 5483 5477 5472 5466 5461 5456 5450 5445 5439 5434 5429 5424 5419 5414 5408 5403 5399 5395 5391 5386 5381 5377 5374 5370